Location: Milton
(43.5183°N, 79.8775°W)
Time: 09:27:14
(UTC+00:00)

Gurwin Techsat 1B - Pass Details

Date: 22 April 2024
Orbit: 811 x 812 km, 98.9° (Epoch: 29 May)

Event Time Altitude Azimuth Distance (km) Brightness Sun altitude
Rises 07:56:14 0° 26° (NNE) 3,345 13.1 -23.5°
Reaches altitude 10° 07:59:00 10° 39° (NE) 2,408 12.2 -23.1°
Maximum altitude 08:03:21 25° 94° (E) 1,584 10.5 -22.6°
Drops below altitude 10° 08:07:40 10° 149° (SSE) 2,393 10.9 -22.0°
Enters shadow 08:08:35 - 155° (SSE) 2,693 11.1 -21.9°
